Smyrna, TN

9:52 AM CST on November 22, 2019 (GMT -0600)
Smyrna

Weather History for KMQY - October, 2019

Change the Weather History Date:

Monday, October 21, 2019

  Actual Average Record
Temperature  
Mean Temperature 64 °F -  
Max Temperature 72 °F 67 °F 83 °F (2007)
Min Temperature 57 °F 49 °F 32 °F (2006)
Degree Days  
Heating Degree Days 1    
Growing Degree Days 14 (Base 50)    
Moisture  
Dew Point 61 °F    
Average Humidity 90    
Maximum Humidity 97    
Minimum Humidity 78    
Precipitation  
Precipitation 0.01 in - - ()
Sea Level Pressure  
Sea Level Pressure 29.87 in    
Wind  
Wind Speed 5 mph ()    
Max Wind Speed 14 mph    
Max Gust Speed 23 mph    
Visibility 8.8 miles    
Events Rain    
Averages and records for this station are not official NWS values.
T = Trace of Precipitation, MM = Missing Value Source: Averaged Metar Reports

Daily Weather History Graph

Daily Weather History Graph

Search for Another Location

Airport or City:

Astronomy

Oct. 21, 2019 Rise Set
Actual Time 6:58 AM CDT 6:02 PM CDT
Civil Twilight 6:32 AM CDT 6:28 PM CDT
Nautical Twilight 6:02 AM CDT 6:58 PM CDT
Astronomical Twilight 5:32 AM CDT 7:28 PM CDT
Moon No Moon Rise 2:09 PM CDT (10/21)
Length of Visible Light 11h 56m
Length of Day
11h 04m
Waning Gibbous, 48% of the Moon is Illuminated
Oct 21
Waning Gibbous
Oct 27
New
Nov 4
First Quarter
Nov 12
Full
Nov 19
Last Quarter

Hourly Weather History & Observations

Time (CDT) Temp. Dew Point Humidity Pressure Visibility Wind Dir Wind Speed Gust Speed Precip Events Conditions
12:56 AM 57.9 °F 55.9 °F 93% 29.94 in 10.0 mi SSE 3.5 mph - N/A   Mostly Cloudy
1:56 AM 57.9 °F 55.9 °F 93% 29.90 in 10.0 mi SE 5.8 mph - N/A   Partly Cloudy
2:56 AM 59.0 °F 57.0 °F 93% 29.88 in 10.0 mi SSE 4.6 mph - N/A   Partly Cloudy
3:56 AM 57.9 °F 57.0 °F 97% 29.87 in 10.0 mi SE 6.9 mph - N/A   Overcast
4:56 AM 60.1 °F 57.0 °F 90% 29.86 in 10.0 mi SE 5.8 mph - N/A   Overcast
5:56 AM 61.0 °F 57.0 °F 87% 29.86 in 10.0 mi SE 3.5 mph - N/A   Overcast
6:56 AM 63.0 °F 59.0 °F 87% 29.86 in 10.0 mi SSE 9.2 mph - N/A   Clear
7:56 AM 66.0 °F 60.1 °F 81% 29.85 in 10.0 mi SSE 9.2 mph - N/A   Clear
8:36 AM 68.0 °F 60.8 °F 78% 29.83 in 10.0 mi South 8.1 mph 23.0 mph N/A   Mostly Cloudy
8:56 AM 68.0 °F 61.0 °F 78% 29.85 in 10.0 mi South 12.7 mph 23.0 mph N/A   Mostly Cloudy
9:56 AM 70.0 °F 63.0 °F 78% 29.88 in 10.0 mi South 13.8 mph 19.6 mph N/A   Overcast
10:36 AM 69.8 °F 62.6 °F 78% 29.89 in 10.0 mi SSW 6.9 mph - N/A   Overcast
10:56 AM 71.1 °F 64.0 °F 78% 29.90 in 10.0 mi South 9.2 mph - N/A   Mostly Cloudy
11:36 AM 71.6 °F 64.4 °F 78% 29.88 in 10.0 mi South 5.8 mph - N/A   Overcast
11:56 AM 70.0 °F 64.0 °F 81% 29.90 in 10.0 mi WSW 9.2 mph - 0.00 in Rain Light Rain
12:28 PM 69.8 °F 66.2 °F 88% 29.87 in 10.0 mi SSW 5.8 mph - N/A Rain Light Rain
12:56 PM 69.1 °F 64.9 °F 87% 29.88 in 10.0 mi South 6.9 mph - N/A Rain Light Rain
1:23 PM 69.8 °F 64.4 °F 83% 29.85 in 10.0 mi SSE 10.4 mph - N/A   Overcast
1:56 PM 64.0 °F 61.0 °F 90% 29.90 in 8.0 mi WSW 9.2 mph - N/A Rain Rain
2:56 PM 64.0 °F 62.1 °F 93% 29.88 in 10.0 mi South 6.9 mph - N/A Rain Light Rain
3:56 PM 63.0 °F 61.0 °F 93% 29.86 in 10.0 mi South 9.2 mph - N/A Rain Light Rain
4:56 PM 62.1 °F 61.0 °F 96% 29.86 in 5.0 mi SSE 8.1 mph - N/A Rain Light Rain
5:56 PM 62.1 °F 61.0 °F 96% 29.85 in 10.0 mi Variable 6.9 mph - N/A Rain Light Rain
6:04 PM 62.6 °F 60.8 °F 94% 29.84 in 10.0 mi South 6.9 mph - 0.00 in Rain Light Rain
6:31 PM 62.6 °F 60.8 °F 94% 29.84 in 9.0 mi SSW 3.5 mph - 0.00 in Rain Rain
6:56 PM 62.1 °F 61.0 °F 96% 29.87 in 4.0 mi Calm Calm - N/A Rain Rain
7:09 PM 62.6 °F 60.8 °F 94% 29.85 in 2.5 mi SSE 3.5 mph - N/A Rain Rain
7:14 PM 62.6 °F 60.8 °F 94% 29.86 in 5.0 mi South 3.5 mph - N/A Rain Light Rain
7:56 PM 62.1 °F 61.0 °F 96% 29.89 in 8.0 mi WSW 3.5 mph - N/A Rain Light Rain
8:27 PM 62.6 °F 60.8 °F 94% 29.87 in 3.0 mi Calm Calm - 0.01 in Rain Light Rain
8:56 PM 62.1 °F 61.0 °F 96% 29.88 in 5.0 mi SSE 3.5 mph - 0.01 in Rain Rain
9:07 PM 62.6 °F 60.8 °F 94% 29.87 in 7.0 mi Calm Calm - 0.00 in Rain Light Rain
9:56 PM 62.1 °F 61.0 °F 96% 29.90 in 10.0 mi SSW 3.5 mph - 0.00 in   Overcast
10:56 PM 62.1 °F 61.0 °F 96% 29.91 in 10.0 mi Calm Calm - N/A   Overcast
11:14 PM 62.6 °F 60.8 °F 94% 29.89 in 10.0 mi Calm Calm - N/A   Overcast
11:24 PM 62.6 °F 60.8 °F 94% 29.89 in 10.0 mi SSW 4.6 mph - N/A   Overcast
11:56 PM 62.1 °F 60.1 °F 93% 29.90 in 10.0 mi WSW 4.6 mph - N/A   Overcast